STARLINK-36126

Last updated on Mon Dec 15 2025 00:02:12 GMT+0000 (Coordinated Universal Time)

1 66866U 25281U 25348.25003472 -.01282701 00000+0 -53315-2 0 9996 2 66866 43.0007 112.9159 0001318 267.6085 302.3457 15.87341614 1671
UTC large
Height (km)
Speed (km/s)
/
Latitude / Longitude
Inclination (degrees)
Orbital Period (minutes)
Azimuth
Elevation
Range (km)
Doppler Factor

Next 0 passes for location: London (51.5072 / 0.1276)

Sorry there are no passes over London.